Вернуться в каталог

BLOCK DM-SL R/B

АктивенHEO
NORAD 32730·ROCKET BODY· XX

Запущен Mar 19, 2008 с Sea Launch Platform

Loading…

Ближайшие Пролёты (ближайшие 24 часа)

TLE

СвежийSource: Space-Track

Эпоха: Sep 14, 2026, 10:44 UTC

1 32730U 08013B   26257.44780831  .02051973 -10874-5  46098-3 0  9997
2 32730   0.5022 179.0826 4316467 254.9493 328.3490  7.10261705210186

Отслеживайте BLOCK DM-SL R/B в реальном времени с AllMySat

Download on the App Store